User: anonymous   Login
Location: Mentone
(34.5413°N, 85.5351°W)
Time: 01:35:10
(UTC-05:00)
Language:

Cosmos 2026 Rocket - Orbit

View from above orbital plane
View from above orbital plane
View from above satellite
View from above satellite

Ground track
Ground track

The orbit data is extracted from the following two-line orbital elements,

1 20046U 89042B   14304.07195795  .00000024  00000-0  87178-5 0  3884
2 20046 082.9352 298.6217 0040944 239.2706 181.2192 13.77975312277025
Epoch (UTC): 31 October 2014 01:43:37
Eccentricity: 0.0040944
inclination: 82.9352°
perigee height: 941 km
apogee height: 1001 km
right ascension of ascending node: 298.6217°
argument of perigee: 239.2706°
revolutions per day: 13.77975312
mean anomaly at epoch: 181.2192°
orbit number at epoch: 27702

The dashed part of the orbit path shows where the satellite is in the earth's shadow,  

DLR